1500066001.18,28245,18.81,73676.3,-0.45,-0.97,-0.93,0,*6C
1500066002.41,28246,18.81,73672.0,-0.45,-0.97,-0.93,0,*6F
1500066003.64,28247,18.81,73674.8,-0.45,-0.97,-0.93,0,*6E
1500066004.87,28248,18.81,73676.5,-0.43,-0.81,-0.93,0,*60
1500066006.11,28249,18.81,73674.8,-0.43,-0.93,-0.89,0,*69
1500066007.36,28250,18.81,73674.8,-0.43,-0.93,-0.89,0,*61
1500066008.61,28251,18.81,73674.5,-0.43,-0.89,-0.89,0,*6B
1500066009.86,28252,18.81,73672.0,-0.43,-0.89,-0.89,0,*68
1500066011.11,28253,18.81,73678.3,-0.43,-0.89,-0.89,0,*69
1500066012.36,28254,18.81,73672.3,-0.39,-0.85,-0.85,0,*63
1500066013.62,28255,18.81,73674.8,-0.43,-0.89,-0.89,0,*6F
1500066014.87,28256,18.81,73676.5,-0.39,-0.85,-0.89,0,*6D
1500066016.12,28257,18.81,73674.5,-0.39,-0.89,-0.85,0,*6C
1500066017.37,28258,18.81,73678.3,-0.39,-0.85,-0.85,0,*6F
1500066018.61,28259,18.81,73676.5,-0.39,-0.85,-0.77,0,*63
1500066019.86,28260,18.81,73678.3,-0.39,-0.89,-0.89,0,*64
1500066021.07,28261,18.81,73678.0,-0.43,-0.81,-0.81,0,*68
1500066022.28,28262,18.81,73676.3,-0.43,-0.81,-0.77,0,*62
1500066023.49,28263,18.81,73676.5,-0.39,-0.77,-0.73,0,*63
1500066024.7,28264,18.81,73678.8,-0.39,-0.77,-0.73,0,*64
1500066025.88,28265,18.81,73678.5,-0.37,-0.73,-0.73,0,*6F
1500066027.07,28266,18.81,73676.5,-0.37,-0.73,-0.73,0,*6C
1500066028.28,28267,18.81,73672.8,-0.35,-0.69,-0.69,0,*6F
1500066029.49,28268,18.81,73676.5,-0.35,-0.73,-0.69,0,*6B
1500066030.67,28269,18.81,73676.5,-0.37,-0.69,-0.69,0,*63
1500066031.86,28270,18.81,73676.0,-0.37,-0.73,-0.73,0,*6B
1500066033.07,28271,18.81,73678.8,-0.35,-0.69,-0.69,0,*68
1500066034.27,28272,18.81,73678.3,-0.35,-0.61,-0.69,0,*63
1500066035.45,28273,18.81,73676.0,-0.37,-0.65,-0.65,0,*68
1500066036.62,28274,18.81,73674.8,-0.37,-0.61,-0.65,0,*6B
1500066037.82,28275,18.81,73680.3,-0.35,-0.69,-0.61,0,*64
1500066039.0,28276,18.81,73678.5,-0.37,-0.73,-0.65,0,*6A
1500066040.21,28277,18.81,73678.0,-0.35,-0.69,-0.73,0,*65
1500066041.42,28278,18.81,73678.5,-0.35,-0.69,-0.61,0,*69
1500066042.6,28279,18.81,73678.0,-0.33,-0.73,-0.69,0,*6D
1500066043.79,28280,18.81,73674.8,-0.33,-0.73,-0.69,0,*6B
1500066044.98,28281,18.81,73674.3,-0.33,-0.69,-0.69,0,*61
1500066046.16,28282,18.81,73676.3,-0.33,-0.69,-0.69,0,*62
1500066047.35,28283,18.81,73672.8,-0.33,-0.69,-0.73,0,*68
1500066048.54,28284,18.81,73674.3,-0.33,-0.73,-0.69,0,*6F
1500066049.72,28285,18.81,73678.3,-0.33,-0.69,-0.73,0,*6E
1500066050.91,28286,18.81,73676.5,-0.33,-0.69,-0.73,0,*6D
1500066052.1,28287,18.81,73676.0,-0.33,-0.73,-0.69,0,*6C
1500066053.29,28288,18.81,73676.0,-0.33,-0.69,-0.73,0,*63
1500066054.47,28289,18.81,73676.5,-0.33,-0.69,-0.65,0,*65
1500066055.66,28290,18.81,73680.3,-0.33,-0.81,-0.81,0,*61
1500066056.91,28291,18.81,73678.3,-0.33,-1.05,-1.05,0,*60
1500066058.17,28292,18.81,73672.8,-0.31,-1.01,-1.05,0,*65
1500066059.4,28293,18.81,73674.8,-0.33,-0.97,-0.97,0,*62
1500066060.63,28294,18.81,73674.8,-0.33,-0.93,-0.93,0,*65
1500066061.84,28295,18.81,73672.5,-0.31,-0.81,-0.81,0,*66
1500066063.05,28296,18.81,73674.8,-0.31,-0.77,-0.77,0,*65
1500066064.23,28297,18.81,73678.0,-0.29,-0.73,-0.65,0,*6A
1500066065.44,28298,18.81,73676.5,-0.31,-0.77,-0.77,0,*6B
1500066066.67,28299,18.81,73674.0,-0.33,-0.85,-0.85,0,*68
1500066067.86,28300,18.81,73676.5,-0.33,-0.81,-0.81,0,*69
1500066069.07,28301,18.81,73674.3,-0.31,-0.77,-0.81,0,*63
1500066070.3,28302,18.81,73674.5,-0.33,-0.97,-0.97,0,*6B
1500066071.56,28303,18.81,73674.3,-0.31,-1.05,-0.93,0,*56
1500066072.79,28304,18.81,73674.3,-0.33,-0.97,-0.97,0,*6D
1500066074.04,28305,18.81,73668.0,-0.31,-0.93,-0.89,0,*65
1500066075.29,28306,18.81,73674.0,-0.31,-0.89,-0.89,0,*6D
1500066076.55,28307,18.81,73672.5,-0.31,-0.89,-0.89,0,*6C
1500066077.8,28308,18.81,73674.0,-0.31,-0.93,-0.93,0,*63
1500066079.05,28309,18.81,73674.0,-0.31,-0.89,-0.89,0,*62
1500066080.28,28310,18.81,73670.5,-0.33,-0.97,-0.97,0,*68
1500066081.53,28311,18.81,73672.0,-0.31,-0.93,-0.93,0,*6B
1500066082.78,28312,18.81,73670.0,-0.31,-0.93,-0.89,0,*63
1500066084.03,28313,18.81,73674.3,-0.31,-0.93,-0.93,0,*69
1500066085.27,28314,18.81,73676.8,-0.33,-1.05,-1.09,0,*60
1500066086.54,28315,18.81,73672.3,-0.31,-1.05,-1.05,0,*6F
1500066087.81,28316,18.81,73672.3,-0.31,-1.05,-1.05,0,*6C
1500066089.05,28317,18.81,73674.0,-0.33,-1.09,-1.09,0,*6F
1500066090.29,28318,18.81,73670.8,-0.31,-1.21,-1.09,0,*68
1500066091.49,28319,18.81,73674.0,-0.33,-1.21,-1.21,0,*61
1500066092.73,28320,18.81,73674.8,-0.33,-1.13,-1.13,0,*6B
1500066093.95,28321,18.81,73674.8,-0.31,-1.17,-1.17,0,*68
1500066095.21,28322,18.81,73672.5,-0.31,-1.09,-1.09,0,*6B
1500066096.41,28323,18.81,73672.8,-0.33,-1.21,-1.21,0,*68
1500066097.63,28324,18.81,73674.5,-0.33,-1.21,-1.13,0,*6E
1500066098.85,28325,18.81,73676.0,-0.33,-1.13,-1.21,0,*6F
1500066100.07,28326,18.81,73674.3,-0.33,-1.13,-1.21,0,*6C
1500066101.29,28327,18.81,73668.3,-0.33,-1.21,-1.13,0,*6D
1500066102.51,28328,18.81,73670.3,-0.35,-1.21,-1.21,0,*65
1500066103.77,28329,18.81,73674.8,-0.35,-1.09,-1.13,0,*6F
1500066105.03,28330,18.81,73674.0,-0.35,-1.09,-1.13,0,*67
1500066106.29,28331,18.81,73674.8,-0.35,-1.09,-1.05,0,*61
1500066107.56,28332,18.81,73674.0,-0.35,-1.05,-1.09,0,*62
1500066108.8,28333,18.81,73678.3,-0.33,-1.09,-1.05,0,*65
1500066110.07,28334,18.81,73670.5,-0.31,-1.05,-1.01,0,*68
1500066111.31,28335,18.81,73674.8,-0.33,-1.13,-1.09,0,*64
1500066112.55,28336,18.81,73674.8,-0.33,-1.13,-1.09,0,*67
1500066113.77,28337,18.81,73674.8,-0.33,-1.21,-1.13,0,*6C
1500066115.0,28338,18.81,73674.5,-0.33,-1.13,-1.13,0,*62
1500066116.24,28339,18.81,73674.0,-0.33,-1.13,-1.13,0,*63
1500066117.48,28340,18.81,73672.0,-0.33,-1.13,-1.13,0,*6D
1500066118.72,28341,18.81,73670.0,-0.33,-1.13,-1.13,0,*6C
1500066119.94,28342,18.81,73670.8,-0.33,-1.21,-1.13,0,*6E
1500066121.17,28343,18.81,73672.3,-0.33,-1.09,-1.13,0,*65
1500066122.41,28344,18.81,73672.8,-0.33,-1.09,-1.09,0,*69
1500066123.67,28345,18.81,73674.3,-0.35,-1.09,-1.09,0,*6E
1500066124.93,28346,18.81,73672.3,-0.35,-1.13,-1.09,0,*66
1500066126.13,28347,18.81,73670.5,-0.33,-1.25,-1.21,0,*6E
1500066127.34,28348,18.81,73666.3,-0.35,-1.25,-1.25,0,*63
1500066128.55,28349,18.81,73670.8,-0.35,-1.25,-1.25,0,*62
1500066129.79,28350,18.81,73674.0,-0.35,-1.25,-1.13,0,*6F
1500066131.03,28351,18.81,73670.0,-0.35,-1.21,-1.13,0,*6A
1500066132.25,28352,18.81,73672.3,-0.35,-1.21,-1.21,0,*68
1500066133.49,28353,18.81,73672.5,-0.35,-1.21,-1.13,0,*68
1500066134.76,28354,18.81,73670.3,-0.35,-1.13,-1.05,0,*69
1500066135.99,28355,18.81,73672.0,-0.37,-1.13,-1.13,0,*6D
1500066137.25,28356,18.81,73672.8,-0.35,-1.09,-1.09,0,*6C
1500066138.49,28357,18.81,73674.5,-0.37,-1.01,-1.13,0,*6C
1500066139.75,28358,18.81,73672.3,-0.35,-1.09,-1.09,0,*62
1500066141.02,28359,18.81,73672.0,-0.35,-1.13,-1.09,0,*68
1500066142.28,28360,18.81,73668.3,-0.35,-1.13,-1.09,0,*62
1500066143.54,28361,18.81,73672.3,-0.35,-1.13,-1.09,0,*63
1500066144.8,28362,18.81,73674.3,-0.35,-1.09,-1.09,0,*6B
1500066146.06,28363,18.81,73670.5,-0.35,-1.09,-1.09,0,*6A
1500066147.31,28364,18.81,73668.5,-0.35,-1.13,-1.21,0,*6C
1500066148.57,28365,18.81,73674.0,-0.35,-1.09,-1.09,0,*6C
1500066149.84,28366,18.81,73672.0,-0.35,-1.05,-1.05,0,*6F
1500066151.07,28367,18.81,73672.0,-0.37,-1.09,-1.13,0,*67
1500066152.29,28368,18.81,73672.3,-0.37,-1.13,-1.17,0,*67
1500066153.53,28369,18.81,73672.5,-0.33,-1.09,-1.09,0,*66
1500066154.77,28370,18.81,73670.5,-0.33,-1.09,-1.05,0,*62
1500066156.04,28371,18.81,73670.5,-0.35,-1.09,-1.05,0,*65
1500066157.3,28372,18.81,73670.0,-0.35,-1.09,-1.09,0,*6A
1500066158.56,28373,18.81,73672.5,-0.35,-1.05,-1.09,0,*67
1500066159.82,28374,18.81,73668.0,-0.35,-1.09,-1.09,0,*6C
1500066161.09,28375,18.81,73670.0,-0.35,-1.05,-1.09,0,*61
1500066162.35,28376,18.81,73670.0,-0.35,-1.05,-0.97,0,*54
1500066163.62,28377,18.81,73670.5,-0.35,-0.97,-1.05,0,*55
1500066164.86,28378,18.81,73668.8,-0.33,-1.05,-0.97,0,*5C
1500066166.1,28379,18.81,73668.0,-0.33,-1.09,-1.09,0,*67
1500066167.33,28380,18.81,73670.0,-0.33,-1.09,-1.13,0,*6A
1500066168.57,28381,18.81,73668.0,-0.33,-1.13,-1.09,0,*6B
1500066169.77,28382,18.81,73668.3,-0.33,-1.21,-1.21,0,*63
1500066171.01,28383,18.81,73668.5,-0.33,-1.13,-1.13,0,*62
1500066172.25,28384,18.81,73668.8,-0.33,-1.13,-1.13,0,*65
1500066173.49,28385,18.81,73670.3,-0.33,-1.05,-1.09,0,*68
1500066174.73,28386,18.81,73670.5,-0.33,-1.09,-1.09,0,*67
1500066175.97,28387,18.81,73672.3,-0.33,-1.05,-1.09,0,*6A
1500066177.21,28388,18.81,73670.3,-0.33,-1.09,-1.05,0,*65
1500066178.45,28389,18.81,73668.0,-0.33,-1.09,-1.09,0,*68
1500066179.7,28390,18.81,73668.5,-0.33,-1.05,-1.05,0,*60
1500066180.95,28391,18.81,73674.0,-0.33,-1.05,-1.05,0,*61
1500066182.2,28392,18.81,73674.8,-0.33,-1.05,-1.05,0,*62
1500066183.44,28393,18.81,73670.8,-0.33,-1.09,-1.09,0,*63
1500066184.71,28394,18.81,73672.5,-0.31,-1.05,-1.05,0,*66
1500066185.95,28395,18.81,73674.5,-0.33,-1.05,-1.05,0,*65
1500066187.19,28396,18.81,73668.8,-0.33,-1.09,-1.09,0,*66
1500066188.41,28397,18.81,73668.3,-0.33,-1.21,-1.13,0,*66
1500066189.62,28398,18.81,73670.5,-0.33,-1.21,-1.13,0,*69
1500066190.86,28399,18.81,73670.3,-0.33,-1.09,-1.13,0,*62
1500066192.1,28400,18.81,73670.0,-0.33,-1.09,-1.09,0,*6E
1500066193.33,28401,18.81,73674.3,-0.33,-1.09,-1.09,0,*6F
1500066194.61,28402,18.81,73668.3,-0.31,-1.05,-1.05,0,*6E
1500066195.84,28403,18.81,73670.8,-0.33,-1.09,-1.13,0,*66
1500066197.04,28404,18.81,73670.3,-0.33,-1.33,-1.21,0,*69
1500066198.23,28405,18.81,73668.5,-0.33,-1.25,-1.25,0,*6B
1500066199.46,28406,18.81,73672.3,-0.33,-1.09,-1.13,0,*63
1500066200.7,28407,18.81,73672.3,-0.33,-1.09,-1.13,0,*62
1500066201.95,28408,18.81,73672.8,-0.33,-1.05,-1.05,0,*66
1500066203.15,28409,18.81,73672.5,-0.33,-1.17,-1.17,0,*67
1500066204.34,28410,18.81,73672.3,-0.33,-1.33,-1.33,0,*6F
1500066205.55,28411,18.81,73670.5,-0.33,-1.35,-1.33,0,*68
1500066206.75,28412,18.81,73674.5,-0.33,-1.21,-1.21,0,*6D
1500066207.99,28413,18.81,73670.5,-0.33,-1.13,-1.13,0,*6C
1500066209.19,28414,18.81,73672.3,-0.33,-1.21,-1.21,0,*6B
1500066210.39,28415,18.81,73672.8,-0.33,-1.21,-1.21,0,*6A
1500066211.61,28416,18.81,73672.0,-0.33,-1.21,-1.13,0,*68
1500066212.85,28417,18.81,73674.0,-0.35,-1.21,-1.13,0,*6F
1500066214.06,28418,18.81,73670.8,-0.35,-1.21,-1.25,0,*65
1500066215.28,28419,18.81,73668.8,-0.35,-1.33,-1.25,0,*67
1500066216.52,28420,18.81,73668.3,-0.35,-1.43,-1.33,0,*6D
1500066217.78,28421,18.81,73670.0,-0.35,-1.35,-1.35,0,*6B
1500066218.98,28422,18.81,73668.0,-0.37,-1.29,-1.29,0,*6A
1500066220.2,28423,18.81,73672.0,-0.35,-1.21,-1.21,0,*69
1500066221.38,28424,18.81,73670.3,-0.37,-1.25,-1.25,0,*6C
1500066222.63,28425,18.81,73670.0,-0.35,-1.13,-1.21,0,*6E
1500066223.85,28426,18.81,73672.3,-0.35,-1.21,-1.21,0,*6C
1500066225.05,28427,18.81,73668.5,-0.37,-1.29,-1.29,0,*6F
1500066226.26,28428,18.81,73666.3,-0.35,-1.33,-1.33,0,*62
1500066227.53,28429,18.81,73670.3,-0.35,-1.43,-1.43,0,*63
1500066228.75,28430,18.81,73668.5,-0.35,-1.25,-1.21,0,*6F
1500066229.99,28431,18.81,73672.3,-0.35,-1.21,-1.13,0,*6B
1500066231.2,28432,18.81,73674.0,-0.37,-1.13,-1.17,0,*6F
1500066232.4,28433,18.81,73668.5,-0.37,-1.21,-1.21,0,*6A
1500066233.61,28434,18.81,73672.0,-0.37,-1.35,-1.29,0,*60
1500066234.8,28435,18.81,73674.5,-0.33,-1.25,-1.25,0,*68
1500066236.06,28436,18.81,73674.3,-0.35,-1.13,-1.13,0,*6D
1500066237.25,28437,18.81,73672.3,-0.37,-1.25,-1.17,0,*6F
1500066238.5,28438,18.81,73672.0,-0.35,-1.13,-1.21,0,*62
1500066239.73,28439,18.81,73670.3,-0.35,-1.25,-1.13,0,*67
1500066240.99,28440,18.81,73668.5,-0.35,-1.13,-1.13,0,*6C
1500066242.26,28441,18.81,73672.0,-0.35,-1.13,-1.13,0,*6D
1500066243.47,28442,18.81,73672.0,-0.37,-1.13,-1.17,0,*68
1500066244.69,28443,18.81,73674.5,-0.37,-1.13,-1.17,0,*69
1500066245.91,28444,18.81,73670.0,-0.35,-1.21,-1.21,0,*68
1500066247.1,28445,18.81,73670.3,-0.37,-1.25,-1.25,0,*6B
1500066248.28,28446,18.81,73668.5,-0.37,-1.25,-1.25,0,*68
1500066249.5,28447,18.81,73674.0,-0.35,-1.21,-1.21,0,*6B
1500066250.7,28448,18.81,73670.3,-0.37,-1.17,-1.17,0,*66
1500066251.94,28449,18.81,73674.3,-0.37,-1.05,-1.13,0,*60
1500066253.17,28450,18.81,73672.3,-0.37,-1.13,-1.13,0,*6F
1500066254.44,28451,18.81,73670.8,-0.35,-1.13,-1.09,0,*67
1500066255.63,28452,18.81,73670.8,-0.37,-1.17,-1.17,0,*6D
1500066256.82,28453,18.81,73672.0,-0.37,-1.25,-1.17,0,*6D
1500066258.08,28454,18.81,73668.5,-0.35,-1.13,-1.13,0,*69
1500066259.35,28455,18.81,73672.0,-0.35,-1.13,-1.09,0,*63
1500066260.62,28456,18.81,73670.3,-0.35,-1.05,-1.05,0,*6B
1500066261.88,28457,18.81,73674.8,-0.35,-1.09,-1.09,0,*6A
1500066263.14,28458,18.81,73670.8,-0.35,-1.09,-1.05,0,*69
1500066264.38,28459,18.81,73666.5,-0.37,-1.13,-1.13,0,*66
1500066265.64,28460,18.81,73670.0,-0.35,-1.09,-1.09,0,*6E
1500066266.91,28461,18.81,73670.0,-0.35,-1.05,-1.09,0,*63
1500066268.17,28462,18.81,73672.0,-0.35,-1.09,-1.09,0,*6C
1500066269.43,28463,18.81,73672.0,-0.35,-1.09,-1.09,0,*6D
1500066270.69,28464,18.81,73668.5,-0.35,-1.05,-0.97,0,*50
1500066271.96,28465,18.81,73672.0,-0.35,-1.09,-1.05,0,*67
1500066273.21,28466,18.81,73674.5,-0.35,-1.09,-0.97,0,*5E
1500066274.45,28467,18.81,73672.5,-0.37,-1.13,-1.01,0,*68
1500066275.7,28468,18.81,73672.8,-0.35,-0.93,-0.97,0,*62
1500066276.95,28469,18.81,73672.0,-0.35,-0.97,-0.93,0,*63
1500066278.21,28470,18.81,73672.3,-0.35,-0.97,-0.93,0,*6B
1500066279.46,28471,18.81,73672.0,-0.35,-0.93,-0.97,0,*6A
1500066280.69,28472,18.81,73672.0,-0.33,-0.97,-0.93,0,*6F
1500066281.92,28473,18.81,73670.5,-0.33,-0.97,-0.97,0,*6A
1500066283.15,28474,18.81,73672.8,-0.33,-0.97,-0.97,0,*6D
1500066284.4,28475,18.81,73672.8,-0.33,-0.97,-1.05,0,*56
1500066285.64,28476,18.81,73674.5,-0.33,-0.97,-1.05,0,*55
1500066286.88,28477,18.81,73674.0,-0.33,-1.09,-1.09,0,*6E
1500066288.11,28478,18.81,73674.5,-0.33,-1.09,-1.09,0,*61
1500066289.35,28479,18.81,73672.0,-0.33,-1.09,-1.09,0,*60
1500066290.59,28480,18.81,73668.3,-0.33,-1.09,-1.13,0,*6D
1500066291.81,28481,18.81,73670.3,-0.33,-1.13,-1.21,0,*66
1500066293.02,28482,18.81,73668.5,-0.33,-1.21,-1.13,0,*65
1500066294.24,28483,18.81,73670.3,-0.33,-1.21,-1.13,0,*64
1500066295.48,28484,18.81,73670.3,-0.33,-1.13,-1.13,0,*62
1500066296.73,28485,18.81,73672.0,-0.33,-1.05,-1.05,0,*63
1500066297.96,28486,18.81,73672.0,-0.33,-1.09,-1.09,0,*60
1500066299.2,28487,18.81,73670.8,-0.33,-1.09,-1.09,0,*61
1500066300.44,28488,18.81,73670.3,-0.33,-1.13,-1.09,0,*65
1500066301.68,28489,18.81,73664.3,-0.33,-1.09,-1.13,0,*64
1500066302.88,28490,18.81,73668.8,-0.33,-1.21,-1.21,0,*67
1500066304.12,28491,18.81,73670.8,-0.33,-1.13,-1.13,0,*66
1500066305.35,28492,18.81,73672.3,-0.33,-1.13,-1.13,0,*65
1500066306.6,28493,18.81,73668.8,-0.33,-1.09,-1.05,0,*68
1500066307.86,28494,18.81,73674.3,-0.35,-1.09,-1.09,0,*65
1500066309.12,28495,18.81,73672.5,-0.35,-1.09,-1.09,0,*64
1500066310.36,28496,18.81,73672.0,-0.33,-1.09,-1.09,0,*61
1500066311.62,28497,18.81,73670.3,-0.35,-1.09,-1.09,0,*66
1500066312.86,28498,18.81,73664.8,-0.35,-1.21,-1.13,0,*68
1500066314.12,28499,18.81,73664.5,-0.35,-1.13,-1.13,0,*68
1500066315.39,28500,18.81,73668.3,-0.35,-1.05,-1.05,0,*69
1500066316.62,28501,18.81,73670.3,-0.33,-0.97,-0.93,0,*6A
1500066317.85,28502,18.81,73668.5,-0.31,-0.89,-0.81,0,*67
1500066319.09,28503,18.81,73678.0,-0.31,-0.89,-0.77,0,*6F
1500066320.32,28504,18.81,73678.3,-0.33,-0.97,-0.97,0,*6B
1500066321.55,28505,18.81,73674.3,-0.33,-0.97,-0.97,0,*6A
1500066322.78,28506,18.81,73672.8,-0.33,-0.93,-0.93,0,*69
1500066324.03,28507,18.81,73668.5,-0.31,-0.89,-0.93,0,*61
1500066325.26,28508,18.75,73666.5,-0.33,-0.97,-0.97,0,*67
1500066326.5,28509,18.81,73670.5,-0.33,-0.97,-1.05,0,*5C
1500066327.74,28510,18.81,73668.3,-0.33,-1.09,-1.09,0,*6E
1500066329.0,28511,18.81,73672.0,-0.31,-1.01,-1.01,0,*6D
1500066330.23,28512,18.81,73672.0,-0.33,-0.93,-0.97,0,*68
1500066331.46,28513,18.81,73672.3,-0.33,-0.97,-0.97,0,*6D
1500066332.72,28514,18.81,73672.8,-0.31,-0.89,-0.93,0,*63
1500066333.97,28515,18.81,73672.0,-0.31,-0.93,-1.01,0,*53
1500066335.2,28516,18.81,73670.8,-0.33,-0.97,-0.97,0,*68
1500066336.43,28517,18.81,73670.8,-0.33,-0.97,-0.93,0,*6D
1500066337.69,28518,18.81,73672.8,-0.31,-0.93,-1.01,0,*5E
1500066338.94,28519,18.81,73672.5,-0.31,-0.89,-0.89,0,*65
1500066340.17,28520,18.81,73672.0,-0.33,-0.97,-0.93,0,*69
1500066341.42,28521,18.81,73674.5,-0.31,-0.93,-0.89,0,*65
1500066342.68,28522,18.81,73670.8,-0.31,-1.01,-0.93,0,*57
1500066343.93,28523,18.81,73672.5,-0.31,-0.93,-0.93,0,*6C
1500066345.15,28524,18.81,73670.3,-0.33,-0.93,-0.85,0,*6E
1500066346.38,28525,18.81,73672.5,-0.33,-0.85,-0.85,0,*68
1500066347.6,28526,18.81,73670.8,-0.31,-0.81,-0.77,0,*60
1500066348.83,28527,18.81,73668.0,-0.31,-0.89,-0.81,0,*60
1500066350.05,28528,18.81,73670.3,-0.33,-0.93,-0.85,0,*62
1500066351.3,28529,18.81,73672.5,-0.31,-0.93,-0.89,0,*6D
1500066352.54,28530,18.81,73672.8,-0.31,-0.89,-0.81,0,*66
1500066353.77,28531,18.81,73670.8,-0.31,-0.89,-0.81,0,*67
1500066354.98,28532,18.81,73668.8,-0.31,-0.81,-0.77,0,*65
1500066356.19,28533,18.81,73670.8,-0.31,-0.81,-0.81,0,*6D
1500066357.4,28534,18.75,73668.0,-0.31,-0.77,-0.77,0,*6A
1500066358.59,28535,18.81,73674.0,-0.29,-0.77,-0.77,0,*62
1500066359.78,28536,18.81,73674.5,-0.29,-0.73,-0.73,0,*61
1500066360.96,28537,18.81,73670.8,-0.29,-0.77,-0.73,0,*64
1500066362.15,28538,18.81,73674.0,-0.29,-0.73,-0.73,0,*6F
1500066363.34,28539,18.81,73674.3,-0.29,-0.77,-0.77,0,*6E
1500066364.54,28540,18.81,73672.5,-0.27,-0.73,-0.61,0,*6D
1500066365.73,28541,18.81,73672.5,-0.29,-0.73,-0.65,0,*66
1500066366.92,28542,18.81,73672.8,-0.29,-0.73,-0.77,0,*66
1500066368.13,28543,18.81,73674.5,-0.27,-0.73,-0.77,0,*69
1500066369.33,28544,18.81,73674.5,-0.29,-0.77,-0.85,0,*69
1500066370.56,28545,18.75,73674.0,-0.27,-0.85,-0.77,0,*66
1500066371.79,28546,18.81,73674.3,-0.29,-0.85,-0.89,0,*6A
1500066373.02,28547,18.81,73672.8,-0.27,-0.73,-0.85,0,*60
1500066374.23,28548,18.81,73672.5,-0.27,-0.77,-0.77,0,*66
1500066375.43,28549,18.81,73674.5,-0.27,-0.77,-0.77,0,*67
1500066376.64,28550,18.75,73668.0,-0.27,-0.77,-0.73,0,*6B
1500066377.83,28551,18.81,73674.3,-0.29,-0.73,-0.73,0,*60
1500066379.06,28552,18.75,73672.8,-0.27,-0.85,-0.73,0,*64
1500066380.29,28553,18.81,73674.3,-0.27,-0.85,-0.77,0,*61
1500066381.48,28554,18.81,73668.5,-0.29,-0.77,-0.77,0,*65
1500066382.69,28555,18.81,73670.5,-0.27,-0.77,-0.73,0,*6E
1500066383.9,28556,18.81,73670.5,-0.27,-0.77,-0.77,0,*69
1500066385.13,28557,18.81,73672.8,-0.27,-0.85,-0.77,0,*65
1500066386.33,28558,18.81,73672.8,-0.27,-0.77,-0.77,0,*67
1500066387.54,28559,18.81,73674.5,-0.27,-0.77,-0.77,0,*66
1500066388.75,28560,18.81,73670.5,-0.27,-0.77,-0.73,0,*68
1500066389.95,28561,18.81,73670.8,-0.27,-0.73,-0.65,0,*6A
1500066391.14,28562,18.75,73670.0,-0.25,-0.73,-0.73,0,*6C
1500066392.33,28563,18.75,73672.8,-0.25,-0.69,-0.73,0,*66
1500066393.53,28564,18.81,73670.8,-0.27,-0.77,-0.77,0,*68
1500066394.74,28565,18.81,73672.8,-0.27,-0.77,-0.77,0,*69
1500066395.93,28566,18.81,73674.3,-0.25,-0.69,-0.73,0,*63
1500066397.12,28567,18.81,73672.8,-0.25,-0.73,-0.69,0,*62
1500066398.31,28568,18.75,73672.0,-0.25,-0.73,-0.73,0,*66
1500066399.5,28569,18.81,73672.0,-0.25,-0.73,-0.73,0,*67
1500066400.69,28570,18.75,73670.3,-0.25,-0.73,-0.73,0,*6F
1500066401.89,28571,18.81,73670.3,-0.23,-0.73,-0.81,0,*65
1500066403.08,28572,18.81,73674.3,-0.25,-0.81,-0.81,0,*6D
1500066404.31,28573,18.81,73670.3,-0.25,-0.85,-0.85,0,*6C
1500066405.54,28574,18.81,73674.8,-0.25,-0.85,-0.85,0,*6B
1500066406.75,28575,18.81,73666.5,-0.25,-0.85,-0.81,0,*6E
1500066407.95,28576,18.75,73666.8,-0.23,-0.81,-0.81,0,*6F
1500066409.16,28577,18.75,73666.8,-0.25,-0.85,-0.81,0,*6C
1500066410.37,28578,18.81,73668.5,-0.25,-0.73,-0.85,0,*6E
1500066411.57,28579,18.81,73670.5,-0.23,-0.69,-0.69,0,*60
1500066412.75,28580,18.81,73666.8,-0.25,-0.61,-0.69,0,*68
1500066413.92,28581,18.75,73666.0,-0.25,-0.61,-0.61,0,*61
1500066415.1,28582,18.81,73668.0,-0.25,-0.61,-0.61,0,*62
1500066416.3,28583,18.81,73674.3,-0.23,-0.73,-0.57,0,*63
1500066417.5,28584,18.81,73670.5,-0.23,-0.61,-0.61,0,*62
1500066418.69,28585,18.81,73672.8,-0.23,-0.61,-0.57,0,*66
1500066419.89,28586,18.75,73672.5,-0.23,-0.61,-0.61,0,*60
1500066421.09,28587,18.81,73672.0,-0.23,-0.69,-0.69,0,*61
1500066422.31,28588,18.81,73674.5,-0.21,-0.93,-0.89,0,*67
1500066423.57,28589,18.81,73672.3,-0.23,-1.09,-1.01,0,*67
1500066424.78,28590,18.75,73674.5,-0.23,-1.25,-1.21,0,*63
1500066426.04,28591,18.75,73670.3,-0.23,-1.13,-1.13,0,*66
1500066427.3,28592,18.81,73672.0,-0.23,-1.13,-1.13,0,*65
1500066428.52,28593,18.81,73672.0,-0.23,-1.21,-1.21,0,*64
1500066429.71,28594,18.81,73674.3,-0.25,-1.21,-1.25,0,*61
1500066430.9,28595,18.81,73672.8,-0.25,-1.25,-1.33,0,*63
1500066432.1,28596,18.81,73670.0,-0.25,-1.33,-1.21,0,*64
1500066433.33,28597,18.81,73668.8,-0.25,-1.09,-1.01,0,*6E
1500066434.57,28598,18.81,73668.5,-0.25,-1.01,-1.09,0,*61
1500066435.81,28599,18.81,73668.5,-0.25,-1.01,-1.01,0,*68
1500066437.05,28600,18.81,73672.8,-0.25,-1.01,-1.09,0,*63
1500066438.29,28601,18.81,73668.8,-0.25,-1.09,-1.09,0,*6A
1500066439.5,28602,18.81,73668.8,-0.27,-1.29,-1.25,0,*67
1500066440.72,28603,18.81,73668.8,-0.27,-1.25,-1.17,0,*6B
1500066441.93,28604,18.81,73670.5,-0.27,-1.25,-1.25,0,*6D
1500066443.13,28605,18.75,73668.3,-0.27,-1.59,-1.51,0,*64
1500066444.4,28606,18.75,73668.0,-0.27,-1.47,-1.39,0,*66
1500066445.62,28607,18.81,73670.3,-0.27,-1.29,-1.29,0,*6E
1500066446.88,28608,18.75,73670.8,-0.27,-1.35,-1.35,0,*61
1500066448.07,28609,18.81,73672.8,-0.29,-1.29,-1.17,0,*63
1500066449.31,28610,18.81,73668.5,-0.29,-1.13,-1.13,0,*66
1500066450.56,28611,18.75,73666.8,-0.29,-1.05,-1.05,0,*67
1500066451.82,28612,18.81,73672.0,-0.27,-1.05,-1.01,0,*6E
1500066453.08,28613,18.81,73670.8,-0.27,-0.97,-0.97,0,*6B
1500066454.34,28614,18.75,73664.5,-0.27,-1.01,-1.01,0,*6C
1500066455.6,28615,18.75,73670.3,-0.27,-1.13,-1.13,0,*6D
1500066456.84,28616,18.75,73666.0,-0.29,-1.05,-1.05,0,*60
1500066458.09,28617,18.81,73670.8,-0.29,-1.01,-1.01,0,*61
1500066459.35,28618,18.81,73672.0,-0.27,-1.01,-1.01,0,*60
1500066460.61,28619,18.75,73670.8,-0.27,-1.05,-1.01,0,*65
1500066461.88,28620,18.75,73664.8,-0.27,-1.05,-1.05,0,*6B
1500066463.12,28621,18.81,73668.5,-0.29,-1.05,-1.01,0,*60
1500066464.39,28622,18.75,73668.0,-0.27,-1.01,-1.01,0,*69
1500066465.65,28623,18.75,73670.3,-0.27,-1.05,-1.01,0,*6C
1500066466.9,28624,18.75,73670.0,-0.29,-1.05,-1.05,0,*61
1500066468.16,28625,18.75,73666.0,-0.27,-1.01,-1.01,0,*6E
1500066469.41,28626,18.81,73664.0,-0.27,-0.97,-0.97,0,*6D
1500066470.67,28627,18.75,73664.3,-0.27,-0.97,-0.89,0,*63
1500066471.89,28628,18.81,73666.8,-0.29,-0.89,-0.89,0,*6D
1500066473.13,28629,18.81,73662.3,-0.27,-0.89,-0.77,0,*63
1500066474.36,28630,18.81,73660.0,-0.27,-0.85,-0.77,0,*67
1500066475.59,28631,18.75,73664.0,-0.27,-0.85,-0.77,0,*66
1500066476.8,28632,18.81,73664.3,-0.27,-0.73,-0.77,0,*6C
1500066478.01,28633,18.81,73662.5,-0.27,-0.73,-0.73,0,*69
1500066479.21,28634,18.75,73660.0,-0.27,-0.73,-0.65,0,*69
1500066480.42,28635,18.81,73670.5,-0.27,-0.73,-0.65,0,*68
1500066481.62,28636,18.81,73668.0,-0.23,-0.69,-0.61,0,*60
1500066482.8,28637,18.75,73664.5,-0.25,-0.69,-0.61,0,*67
1500066483.97,28638,18.81,73670.5,-0.25,-0.61,-0.61,0,*60
1500066485.14,28639,18.75,73668.3,-0.25,-0.61,-0.61,0,*61
1500066486.34,28640,18.81,73668.8,-0.23,-0.57,-0.61,0,*6C
1500066487.55,28641,18.75,73668.5,-0.23,-0.57,-0.57,0,*68
1500066488.75,28642,18.75,73668.0,-0.23,-0.57,-0.61,0,*6E
1500066489.92,28643,18.75,73670.3,-0.25,-0.61,-0.61,0,*6C
1500066491.12,28644,18.75,73670.8,-0.23,-0.57,-0.61,0,*68
1500066492.31,28645,18.81,73668.0,-0.23,-0.61,-0.57,0,*69
1500066493.5,28646,18.75,73664.5,-0.25,-0.57,-0.57,0,*69
1500066494.7,28647,18.75,73666.3,-0.23,-0.57,-0.57,0,*6E
1500066495.91,28648,18.81,73670.3,-0.23,-0.57,-0.57,0,*61
1500066497.11,28649,18.81,73668.3,-0.23,-0.57,-0.57,0,*60
1500066498.28,28650,18.75,73668.5,-0.21,-0.53,-0.53,0,*6A
1500066499.5,28651,18.81,73668.0,-0.17,-0.45,-0.45,0,*6E
1500066500.71,28652,18.81,73668.5,-0.17,-0.53,-0.53,0,*6D
1500066501.88,28653,18.81,73670.5,-0.21,-0.57,-0.53,0,*6D
1500066503.06,28654,18.75,73670.8,-0.21,-0.53,-0.53,0,*6E
1500066504.24,28655,18.75,73670.5,-0.21,-0.53,-0.53,0,*6F
1500066505.42,28656,18.81,73670.5,-0.21,-0.53,-0.53,0,*6C
1500066506.63,28657,18.75,73670.5,-0.17,-0.57,-0.41,0,*6F
1500066507.84,28658,18.81,73672.8,-0.17,-0.45,-0.53,0,*60